Regional Weather Roundup
Issued by NWS Spokane, WA

Current Version | Previous Version | Text Only | Print | Product List | Glossary On
Versions: 1 2 3 4 5 6 7 8 9 10 11 12 13 14 15 16 17 18 19 20 21 22 23 24 25 26 27 28 29 30 31 32 33 34 35 36 37 38 39 40 41 42 43 44 45 46 47 48 49 50
962
NZUS01 KOTX 161510
RWROTX

Eastern Washington/Northern Idaho Roundup
National Weather Service, Spokane WA
800 AM PDT WED AUG 16 2017

Note: "fair" indicated few or no clouds below 12,000 feet with no
significant weather and/or obstructions to visibility.

...Northeast Washington and Northern Idaho Panhandle...

CITY           SKY/WX    TMP DP  RH WIND       PRES   REMARKS
Spokane Intl   MOSUNNY   61  38  42 S9        30.01R
Spokane Downto SUNNY     61  44  53 VRB3      30.02R
Coeur d Alene  SUNNY     62  46  55 S8        30.03R
Deer Park      SUNNY     61  39  44 CALM      30.02R
Sandpoint      SUNNY     57  41  54 CALM      30.02R
Bonners Ferry  FAIR      57  43  58 CALM      30.02R

...Southeast Washington and southern Idaho Panhandle...

CITY           SKY/WX    TMP DP  RH WIND       PRES   REMARKS
Walla Walla    SUNNY     71  43  36 SW12      30.01R
Pullman/Moscow SUNNY     63  40  42 CALM      30.06R
Lewiston       SUNNY     63  41  44 E6        30.02R
Lowell           N/A     54  44  69 CALM      30.08S
Grangeville    FAIR      63  37  39 CALM      30.07R

...Columbia Basin...

CITY           SKY/WX    TMP DP  RH WIND       PRES   REMARKS
Ephrata        SUNNY     66  41  40 NE3       29.96S
Moses Lake     SUNNY     61  47  59 CALM      29.97R
Pasco          SUNNY     62  53  72 CALM      29.98R
Richland       SUNNY     67  50  53 CALM      29.98R
Hermiston      SUNNY     68  46  45 CALM      29.99R
Pendleton      SUNNY     64  39  39 SE7       30.02R

...East Slopes Cascades...

CITY           SKY/WX    TMP DP  RH WIND       PRES   REMARKS
The Dalles     SUNNY     68  50  52 W7        29.99R
Yakima         SUNNY     70  48  45 CALM      30.00R
Ellensburg     SUNNY     68  42  38 NW17      30.00S
Stampede Pass  SUNNY     51  43  74 SW5       30.14
Wenatchee      SUNNY     68  40  35 NW3       29.98R
Omak           SUNNY     66  39  37 N8        29.97R
Sunnyside        N/A     57  49  75 CALM      29.99R

...Southern British Columbia...

CITY           SKY/WX    TMP DP  RH WIND       PRES   REMARKS
Penticton      MOSUNNY   64  46  52 E2        29.98S
Castlegar      PTSUNNY   57  50  77 CALM      30.00S
Cranbrook      MOSUNNY   57  41  54 CALM      30.01S
Osoyoos          N/A     64  52  63 CALM        N/A
Creston          N/A     61  48  63 CALM        N/A

...Western Montana...

CITY           SKY/WX    TMP DP  RH WIND       PRES   REMARKS
Kalispell      SUNNY     58  45  62 NE5       30.02R
Libby            N/A     57  37  47 CALM      30.02R
Missoula       SUNNY     54  36  50 CALM      30.07S

...Neighboring Cities...

CITY           SKY/WX    TMP DP  RH WIND       PRES   REMARKS
Seattle        MOSUNNY   59  51  75 SE7       30.10S
Portland       MOSUNNY   60  53  77 NW9       30.11R
Boise          SUNNY     65  37  35 S6        30.02R
Great Falls    SUNNY     65  29  25 SW12      30.00S
Calgary        CLOUDY    55  43  62 S3        29.93S SMOKE



USA.gov is the U.S. government's official web portal to all federal, state and local government web resources and services.